This demonstration page uses our WeatherBlox Daily Observations layout. Learn more.

Left ArrowRight Arrow

Hourly Observations for February 26, 2017

Temp ( °F °C ) Dew Point ( °F °C ) Humidity (%) Winds ( mph kmh ) Pressure ( in mb ) Visibility ( mi km ) Precip ( " mm )
12:53 am 00:53 Clear 45 7.2 28 -2.2 52 52 SE 9 15 29.83 1010 10 16 0.00 0.00
1:53 am 01:53 Clear 43 6.1 28 -2.2 56 56 SE 10 17 29.81 1010 10 16 0.00 0.00
2:53 am 02:53 Clear 41 5 29 -1.7 62 62 SE 9 15 29.80 1009 10 16 0.00 0.00
3:53 am 03:53 Clear 39 3.9 29 -1.7 67 67 SE 6 9 29.81 1009 10 16 0.00 0.00
4:53 am 04:53 Clear 37 2.8 29 -1.7 73 73 SSE 8 13 29.79 1009 10 16 0.00 0.00
5:53 am 05:53 Clear with Light Rain 39 3.9 29 -1.7 67 67 Calm 29.81 1010 10 16 0.00 0.03
6:53 am 06:53 Clear with Light Snow 36 2.2 28 -2.2 73 73 ESE 5 7 29.83 1010 9 14 0.00 0.03
7:53 am 07:53 Sunny with Heavy Rain 34 1.1 27 -2.8 76 76 ENE 7 11 29.85 1011 10 16 0.00 0.03
8:53 am 08:53 Sunny with Light Rain 45 7.2 30 -1.1 56 56 E 3 6 29.85 1011 10 16 0.00 0.00
9:53 am 09:53 Sunny 52 11.1 27 -2.8 38 38 NE 6 9 29.87 1012 10 16 0.00 0.00
10:53 am 10:53 Sunny 59 15 19 -7.2 21 21 SSW 3 6 29.85 1011 10 16 0.00 0.00
11:53 am 11:53 Sunny 68 20 13 -10.6 12 12 WNW 10 17 29.84 1010 10 16 0.00 0.00
12:53 pm 12:53 Sunny 71 21.7 11 -11.7 10 10 W 14 22 29.80 1009 10 16 0.00 0.00
1:53 pm 13:53 undefined N/A N/A N/A undefined N/A N/A N/A 0.00 0.00
2:53 pm 14:53 Mostly Cloudy 70 21.1 10 -12.2 10 10 W 17 28 29.75 1007 10 16 0.00 0.00
3:53 pm 15:53 Cloudy 70 21.1 12 -11.1 10 10 WNW 13 20 29.73 1007 10 16 0.00 0.00
4:53 pm 16:53 Cloudy 71 21.7 13 -10.6 10 10 WSW 9 15 29.73 1007 10 16 0.00 0.00
5:53 pm 17:53 Mostly Cloudy 71 21.7 18 -7.8 13 13 W 16 26 29.73 1007 10 16 0.00 0.00
6:53 pm 18:53 Clear 66 18.9 17 -8.3 15 15 WNW 6 9 29.77 1008 10 16 0.00 0.00
7:53 pm 19:53 Clear 61 16.1 19 -7.2 20 20 WNW 8 13 29.79 1009 10 16 0.00 0.00
8:53 pm 20:53 Clear 59 15 20 -6.7 22 22 NNW 8 13 29.80 1009 10 16 0.00 0.00
9:53 pm 21:53 Clear 56 13.3 21 -6.1 26 26 NNW 5 7 29.82 1010 10 16 0.00 0.00
10:53 pm 22:53 Clear 56 13.3 23 -5 28 28 E 8 13 29.83 1010 10 16 0.00 0.00
11:53 pm 23:53 Clear 53 11.7 23 -5 31 31 ESE 3 6 29.82 1010 10 16 0.00 0.00

Powered by AerisWeather